GW3519 Weather Reports


Display with metric or nautical units.
time (UTC)temp
F
wind
direction
speed
MPH
gust
MPH
rain 1hr
in
rain 24hr
in
rain mn
in
humidity
%
barometer
mb
20260507061033 53 0 0.0 4.0 0.00 0.20 0.01 86 1006.4
20260507060530 53 0 0.0 4.0 0.00 0.20 0.01 87 1006.5
20260507060044 53 0 0.0 6.0 0.00 0.20 0.01 87 1006.6
20260507055531 54 360 0.0 6.0 0.00 0.20 0.01 87 1006.6
20260507055031 54 360 0.0 4.0 0.01 0.20 0.01 87 1006.6
20260507054543 54 360 0.0 4.0 0.01 0.20 0.01 88 1006.6
20260507054031 54 0 0.0 8.0 0.01 0.20 0.01 88 1006.7
20260507053530 54 0 0.0 8.0 0.01 0.20 0.01 88 1006.9
20260507053049 54 360 1.0 6.0 0.01 0.20 0.01 88 1006.9
20260507052531 54 0 0.0 5.0 0.01 0.20 0.01 88 1006.7
20260507052031 54 360 1.0 5.0 0.01 0.20 0.01 88 1006.7
20260507051539 54 0 0.0 2.0 0.01 0.20 0.01 88 1006.8
20260507051030 55 0 0.0 2.0 0.01 0.20 0.01 88 1006.5
20260507050530 55 0 0.0 2.0 0.01 0.20 0.01 88 1006.5
20260507050045 55 0 0.0 2.0 0.01 0.20 0.01 88 1006.7
20260507045531 55 0 0.0 2.0 0.01 0.20 0.01 88 1006.9
20260507045031 55 0 0.0 4.0 0.00 0.19 0.00 88 1006.9
20260507044546 55 0 0.0 4.0 0.00 0.19 0.00 88 1006.9
20260507044032 55 360 0.0 3.0 0.00 0.19 0.00 88 1006.7
20260507043532 56 360 0.0 3.0 0.00 0.19 0.00 88 1006.7
20260507043042 57 360 1.0 6.0 0.00 0.19 0.00 88 1006.6
20260507042533 58 0 0.0 6.0 0.00 0.19 0.00 89 1006.6
20260507042030 58 360 1.0 5.0 0.00 0.19 0.00 89 1006.5
20260507041548 58 360 1.0 5.0 0.01 0.19 0.00 89 1006.6
20260507041033 58 360 2.0 6.0 0.01 0.19 0.00 89 1006.5
20260507040532 58 360 2.0 10.0 0.01 0.19 0.00 89 1006.6
20260507040045 58 360 2.0 10.0 0.01 0.19 0.00 89 1006.6
20260507035531 58 360 1.0 5.0 0.01 0.19 0.19 89 1006.7
20260507035033 58 0 1.0 5.0 0.01 0.19 0.19 89 1006.5
20260507034546 58 360 1.0 9.0 0.01 0.19 0.19 89 1006.3
20260507034031 58 360 1.0 9.0 0.01 0.19 0.19 89 1006.2
20260507033532 58 360 4.0 11.0 0.01 0.19 0.19 89 1006.1
20260507033044 58 360 2.0 12.0 0.01 0.19 0.19 89 1006.2
20260507032533 59 360 5.0 12.0 0.01 0.19 0.19 89 1006.4
20260507032030 59 360 3.0 12.0 0.01 0.19 0.19 89 1006.2
20260507031541 59 360 4.0 10.0 0.00 0.18 0.18 89 1006.2
20260507031032 59 360 4.0 10.0 0.00 0.18 0.18 89 1005.9
20260507030530 59 360 2.0 9.0 0.00 0.18 0.18 89 1005.9
20260507030046 59 360 3.0 9.0 0.00 0.18 0.18 89 1005.7
20260507025530 59 0 3.0 11.0 0.00 0.18 0.18 89 1005.6
20260507025031 59 360 4.0 11.0 0.00 0.18 0.18 89 1005.7
20260507024554 59 360 3.0 8.0 0.00 0.18 0.18 89 1005.7
20260507024031 59 360 4.0 12.0 0.00 0.18 0.18 89 1005.8
20260507023541 59 360 4.0 12.0 0.00 0.18 0.18 89 1005.7
20260507023045 59 360 4.0 12.0 0.00 0.18 0.18 89 1005.8
20260507022531 59 360 2.0 12.0 0.00 0.18 0.18 89 1005.9
20260507022031 59 360 4.0 12.0 0.00 0.18 0.18 89 1005.8
20260507021545 59 360 4.0 11.0 0.00 0.18 0.18 89 1005.9
20260507021030 59 360 2.0 11.0 0.00 0.18 0.18 89 1005.8
20260507020530 58 360 2.0 11.0 0.00 0.18 0.18 89 1005.8
20260507020055 58 360 4.0 8.0 0.00 0.18 0.18 89 1005.8
20260507015531 58 360 2.0 9.0 0.00 0.18 0.18 89 1005.8
20260507015030 58 360 2.0 9.0 0.00 0.18 0.18 89 1005.9
20260507014554 58 360 2.0 8.0 0.00 0.18 0.18 89 1006.0
20260507014031 58 360 1.0 10.0 0.00 0.18 0.18 89 1006.0
20260507013529 58 360 1.0 10.0 0.00 0.18 0.18 89 1006.0
20260507013048 58 360 3.0 10.0 0.00 0.18 0.18 89 1005.9
20260507012533 58 360 3.0 12.0 0.00 0.18 0.18 89 1006.1
20260507012031 58 360 4.0 12.0 0.00 0.18 0.18 89 1006.1
20260507011544 58 360 3.0 12.0 0.00 0.18 0.18 89 1006.1
20260507011030 58 0 4.0 12.0 0.00 0.18 0.18 89 1006.1
20260507010530 58 360 3.0 12.0 0.00 0.18 0.18 89 1006.1
20260507010044 58 360 2.0 10.0 0.00 0.18 0.18 89 1006.2
20260507005532 58 360 3.0 9.0 0.00 0.18 0.18 89 1006.2
20260507005032 58 360 2.0 9.0 0.00 0.18 0.18 89 1006.2
20260507004550 58 360 3.0 11.0 0.00 0.18 0.18 89 1006.2
20260507004030 58 360 4.0 12.0 0.00 0.18 0.18 89 1006.1
20260507003530 58 360 3.0 12.0 0.00 0.18 0.18 89 1006.1
20260507003047 58 360 3.0 11.0 0.00 0.18 0.18 89 1006.2
20260507002530 58 360 2.0 11.0 0.01 0.18 0.18 89 1006.1
20260507002030 58 360 2.0 11.0 0.01 0.18 0.18 89 1006.2
20260507001547 58 360 4.0 11.0 0.02 0.18 0.18 89 1006.2
20260507001030 58 360 3.0 13.0 0.03 0.18 0.18 89 1006.2
20260507000532 59 360 3.0 13.0 0.04 0.18 0.18 89 1006.1
20260507000045 59 360 1.0 11.0 0.04 0.18 0.18 89 1006.0
20260506235532 59 360 3.0 11.0 0.04 0.18 0.18 89 1006.0
20260506235030 59 360 2.0 8.0 0.04 0.18 0.18 89 1006.0
20260506234550 59 360 2.0 11.0 0.04 0.18 0.18 89 1006.0
20260506234031 59 360 1.0 11.0 0.04 0.18 0.18 89 1006.1
20260506233531 59 0 1.0 9.0 0.04 0.18 0.18 89 1005.9
20260506233043 59 360 2.0 14.0 0.05 0.18 0.18 89 1006.0
20260506232532 59 360 4.0 14.0 0.04 0.17 0.17 88 1005.9
20260506232031 59 360 2.0 10.0 0.04 0.17 0.17 88 1005.8
20260506231551 59 360 2.0 12.0 0.03 0.16 0.16 88 1005.9
20260506231031 59 360 3.0 12.0 0.02 0.15 0.15 88 1005.9
20260506230531 59 360 3.0 9.0 0.01 0.14 0.14 88 1006.0
20260506230056 59 360 2.0 9.0 0.01 0.14 0.14 88 1005.9
20260506225535 59 360 2.0 9.0 0.01 0.14 0.14 88 1005.9
20260506225031 59 360 2.0 10.0 0.02 0.14 0.14 88 1006.0
20260506224546 59 360 2.0 10.0 0.02 0.14 0.14 88 1006.1
20260506224030 59 360 3.0 10.0 0.02 0.14 0.14 88 1006.0
20260506223534 59 360 2.0 8.0 0.02 0.14 0.14 88 1006.1
20260506223053 59 360 2.0 8.0 0.01 0.13 0.13 88 1006.2
20260506222531 59 360 3.0 8.0 0.01 0.13 0.13 87 1006.2
20260506222031 60 360 1.0 11.0 0.01 0.13 0.13 87 1006.3
20260506221544 60 360 3.0 11.0 0.01 0.13 0.13 87 1006.3
20260506221033 60 360 2.0 11.0 0.01 0.13 0.13 87 1006.4
20260506220535 60 360 2.0 15.0 0.01 0.13 0.13 87 1006.4
20260506220044 60 360 3.0 15.0 0.01 0.13 0.13 86 1006.3
20260506215536 60 360 4.0 13.0 0.01 0.13 0.13 86 1006.4
20260506215031 60 360 4.0 12.0 0.00 0.12 0.12 86 1006.6
20260506214544 60 360 4.0 12.0 0.00 0.12 0.12 86 1006.5
20260506214030 60 360 2.0 9.0 0.00 0.12 0.12 86 1006.6
20260506213532 60 360 3.0 8.0 0.01 0.12 0.12 86 1006.6
20260506213059 60 360 1.0 8.0 0.01 0.12 0.12 86 1006.6
20260506212531 60 0 0.0 8.0 0.01 0.12 0.12 86 1006.7
20260506212033 60 360 2.0 9.0 0.03 0.12 0.12 86 1006.6
20260506211549 60 360 3.0 15.0 0.05 0.12 0.12 85 1006.6
20260506211031 60 360 4.0 15.0 0.07 0.12 0.12 85 1006.7
20260506210531 60 360 5.0 14.0 0.08 0.12 0.12 85 1006.6
20260506210045 60 360 3.0 14.0 0.09 0.12 0.12 86 1006.6
20260506205531 60 360 3.0 13.0 0.09 0.12 0.12 85 1006.7
20260506205031 60 360 5.0 13.0 0.09 0.12 0.12 85 1006.7
20260506204550 60 360 2.0 16.0 0.10 0.12 0.12 85 1006.6
20260506204031 60 360 3.0 19.0 0.10 0.12 0.12 85 1007.0
20260506203532 61 360 8.0 19.0 0.09 0.11 0.11 85 1006.9
20260506203047 61 360 2.0 8.0 0.10 0.11 0.11 86 1006.9
20260506202531 61 360 2.0 8.0 0.09 0.10 0.10 85 1006.8
20260506202033 61 360 2.0 6.0 0.08 0.09 0.09 85 1006.7
20260506201555 61 360 2.0 6.0 0.07 0.07 0.07 84 1006.8
20260506201031 62 360 2.0 9.0 0.04 0.04 0.04 84 1006.7
20260506200531 62 360 3.0 9.0 0.04 0.04 0.04 84 1006.7
20260506200039 62 360 1.0 10.0 0.03 0.03 0.03 83 1006.8
20260506195532 62 360 3.0 10.0 0.03 0.03 0.03 82 1006.6
20260506195031 62 360 2.0 14.0 0.03 0.03 0.03 81 1006.6
20260506194546 63 360 3.0 15.0 0.02 0.02 0.02 80 1006.8
20260506194031 63 360 3.0 15.0 0.02 0.02 0.02 79 1006.9
20260506193531 64 360 5.0 13.0 0.02 0.02 0.02 78 1007.0
20260506193044 64 360 1.0 13.0 0.01 0.01 0.01 78 1007.0
20260506192530 64 360 3.0 11.0 0.01 0.01 0.01 76 1007.0
20260506192032 65 360 1.0 13.0 0.01 0.01 0.01 76 1007.0
20260506191547 65 360 4.0 13.0 0.00 0.00 0.00 73 1006.9
20260506191034 66 360 6.0 18.0 0.00 0.00 0.00 72 1007.1
20260506190532 66 360 7.0 20.0 0.00 0.00 0.00 70 1006.9
20260506190043 67 360 7.0 20.0 0.00 0.00 0.00 69 1006.8
20260506185532 67 360 5.0 19.0 0.00 0.00 0.00 67 1007.0
20260506185033 68 360 6.0 19.0 0.00 0.00 0.00 66 1007.2
20260506184542 68 360 7.0 17.0 0.00 0.00 0.00 65 1007.1
20260506184032 68 360 7.0 21.0 0.00 0.00 0.00 64 1007.1
20260506183531 69 360 7.0 21.0 0.00 0.00 0.00 62 1007.1
20260506183050 69 360 8.0 21.0 0.00 0.00 0.00 61 1007.0
20260506182530 70 360 7.0 17.0 0.00 0.00 0.00 60 1007.0
20260506182030 70 360 6.0 17.0 0.00 0.00 0.00 57 1007.1
20260506181544 71 360 5.0 17.0 0.00 0.00 0.00 56 1007.1
20260506181032 71 360 3.0 13.0 0.00 0.00 0.00 54 1007.2
20260506180534 71 360 5.0 20.0 0.00 0.00 0.00 54 1007.1
20260506180049 71 360 6.0 20.0 0.00 0.00 0.00 54 1007.2
20260506175532 72 360 5.0 21.0 0.00 0.00 0.00 53 1007.2
20260506175030 72 217 7.0 21.0 0.00 0.00 0.00 53 1007.2
20260506174545 72 238 7.0 20.0 0.00 0.00 0.00 53 1007.2
20260506174030 72 360 6.0 14.0 0.00 0.00 0.00 54 1007.3
20260506173532 72 277 2.0 13.0 0.00 0.00 0.00 55 1007.3
20260506173050 72 186 4.0 17.0 0.00 0.00 0.00 55 1007.4
20260506172531 72 360 3.0 17.0 0.00 0.00 0.00 56 1007.4
20260506172031 72 168 2.0 12.0 0.00 0.00 0.00 57 1007.4
20260506171542 72 278 4.0 12.0 0.00 0.00 0.00 58 1007.4
20260506171033 72 247 6.0 12.0 0.00 0.00 0.00 57 1007.5
20260506170530 72 231 2.0 11.0 0.00 0.00 0.00 58 1007.5
20260506170108 71 187 5.0 16.0 0.00 0.00 0.00 58 1007.5
20260506165532 71 360 7.0 16.0 0.00 0.00 0.00 58 1007.5
20260506165031 71 249 6.0 15.0 0.00 0.00 0.00 58 1007.7
20260506164545 71 218 3.0 17.0 0.00 0.00 0.00 58 1007.7
20260506164034 71 185 6.0 17.0 0.00 0.00 0.00 58 1007.8
20260506163530 71 360 4.0 12.0 0.00 0.00 0.00 57 1007.8
20260506163054 71 252 2.0 12.0 0.00 0.00 0.00 58 1007.8
20260506162531 71 151 4.0 13.0 0.00 0.00 0.00 56 1007.9
20260506162033 71 209 5.0 13.0 0.00 0.00 0.00 56 1008.1
20260506161544 71 196 4.0 13.0 0.00 0.00 0.00 55 1008.1
20260506161031 71 360 5.0 15.0 0.00 0.00 0.00 56 1008.2
20260506160531 71 217 5.0 15.0 0.00 0.00 0.00 56 1008.4
20260506160043 71 292 6.0 16.0 0.00 0.00 0.00 56 1008.4
20260506155531 71 360 7.0 16.0 0.00 0.00 0.00 55 1008.5
20260506155031 71 360 6.0 15.0 0.00 0.00 0.00 56 1008.7
20260506154544 71 360 4.0 16.0 0.00 0.00 0.00 55 1008.7
20260506154031 72 360 6.0 16.0 0.00 0.00 0.00 56 1008.7
20260506153531 72 360 5.0 14.0 0.00 0.00 0.00 56 1008.7
20260506153046 72 360 6.0 12.0 0.00 0.00 0.00 57 1008.9
20260506152531 72 360 4.0 12.0 0.00 0.00 0.00 58 1008.9
20260506152033 72 360 3.0 12.0 0.00 0.00 0.00 57 1008.9
20260506151546 72 360 3.0 13.0 0.00 0.00 0.00 58 1009.0
20260506151030 71 78 3.0 14.0 0.00 0.00 0.00 59 1008.9
20260506150531 71 360 6.0 14.0 0.00 0.00 0.00 60 1009.0
20260506150044 71 225 6.0 12.0 0.00 0.00 0.00 61 1009.2
20260506145535 70 360 4.0 15.0 0.00 0.00 0.00 62 1009.3
20260506145032 70 360 6.0 15.0 0.00 0.00 0.00 62 1009.3
20260506144558 69 360 5.0 15.0 0.00 0.00 0.00 62 1009.2
20260506144032 69 42 5.0 15.0 0.00 0.00 0.00 63 1009.0
20260506143532 69 360 4.0 15.0 0.00 0.00 0.00 64 1009.1
20260506143041 69 360 5.0 16.0 0.00 0.00 0.00 64 1009.3
20260506142531 69 360 6.0 16.0 0.00 0.00 0.00 64 1009.1
20260506142033 69 360 5.0 14.0 0.00 0.00 0.00 65 1009.1
20260506141540 69 112 5.0 15.0 0.00 0.00 0.00 65 1009.1
20260506141034 68 360 5.0 15.0 0.00 0.00 0.00 65 1009.1
20260506140534 68 360 4.0 11.0 0.00 0.00 0.00 66 1009.3
20260506140048 68 360 4.0 11.0 0.00 0.00 0.00 67 1009.2
20260506135531 68 360 3.0 11.0 0.00 0.00 0.00 67 1009.3
20260506135031 67 360 3.0 15.0 0.00 0.00 0.00 68 1009.4
20260506134545 66 360 4.0 15.0 0.00 0.00 0.00 69 1009.4
20260506134035 66 360 2.0 11.0 0.00 0.00 0.00 69 1009.5
20260506133531 66 360 3.0 11.0 0.00 0.00 0.00 70 1009.7
20260506133045 65 360 3.0 13.0 0.00 0.00 0.00 71 1009.7
20260506132531 65 360 4.0 13.0 0.00 0.00 0.00 71 1009.9
20260506132037 65 360 3.0 13.0 0.00 0.00 0.00 72 1009.9
20260506131545 65 360 4.0 13.0 0.00 0.00 0.00 71 1009.9
20260506131031 65 360 3.0 12.0 0.00 0.00 0.00 71 1009.9
20260506130533 65 360 4.0 12.0 0.00 0.00 0.00 72 1009.8
20260506130058 65 360 3.0 10.0 0.00 0.00 0.00 72 1009.8
20260506125531 64 360 4.0 11.0 0.00 0.00 0.00 72 1009.8
20260506125031 65 360 5.0 17.0 0.00 0.00 0.00 71 1009.8
20260506124543 65 360 6.0 17.0 0.00 0.00 0.00 71 1009.7
20260506124031 65 360 5.0 15.0 0.00 0.00 0.00 73 1009.7
20260506123531 64 360 4.0 14.0 0.00 0.00 0.00 74 1010.0
20260506123048 63 360 4.0 14.0 0.00 0.00 0.00 74 1009.9
20260506122531 63 360 5.0 14.0 0.00 0.00 0.00 74 1010.1
20260506122030 63 360 6.0 13.0 0.00 0.00 0.00 74 1010.2
20260506121549 63 360 3.0 12.0 0.00 0.00 0.00 74 1010.1
20260506121031 63 360 5.0 12.0 0.00 0.00 0.00 74 1009.9
20260506120535 63 360 5.0 12.0 0.00 0.00 0.00 75 1009.9
20260506120045 62 360 2.0 11.0 0.00 0.00 0.00 76 1010.0
20260506115535 62 360 4.0 11.0 0.00 0.00 0.00 75 1010.2
20260506115035 62 360 3.0 10.0 0.00 0.00 0.00 75 1010.2
20260506114544 62 360 4.0 10.0 0.00 0.00 0.00 75 1010.1
20260506114032 62 360 2.0 11.0 0.00 0.00 0.00 75 1010.1
20260506113534 62 360 3.0 11.0 0.00 0.00 0.00 75 1010.3
20260506113042 62 360 3.0 14.0 0.00 0.00 0.00 76 1010.5
20260506112536 62 360 2.0 14.0 0.00 0.00 0.00 75 1010.4
20260506112034 62 360 5.0 13.0 0.00 0.00 0.00 75 1010.3
20260506111540 62 360 3.0 11.0 0.00 0.00 0.00 75 1010.1
20260506111035 62 360 4.0 13.0 0.00 0.00 0.00 75 1010.1
20260506110533 62 360 3.0 13.0 0.00 0.00 0.00 76 1010.1
20260506110048 61 360 3.0 10.0 0.00 0.00 0.00 76 1010.2
20260506105534 61 360 4.0 12.0 0.00 0.00 0.00 77 1010.2
20260506105035 61 360 3.0 12.0 0.00 0.00 0.00 77 1010.3
20260506104545 60 360 3.0 17.0 0.00 0.00 0.00 77 1010.3
20260506104034 61 0 2.0 17.0 0.00 0.00 0.00 77 1010.2
20260506103535 61 360 3.0 10.0 0.00 0.00 0.00 77 1010.2
20260506103051 61 360 2.0 10.0 0.00 0.00 0.00 76 1010.3
20260506102532 61 360 3.0 10.0 0.00 0.00 0.00 76 1010.3
20260506102035 61 360 3.0 10.0 0.00 0.00 0.00 76 1010.3
20260506101544 61 360 2.0 8.0 0.00 0.00 0.00 76 1010.2
20260506101034 61 360 3.0 8.0 0.00 0.00 0.00 76 1010.2
20260506100533 61 360 2.0 9.0 0.00 0.00 0.00 76 1010.1
20260506100051 61 360 2.0 11.0 0.00 0.00 0.00 76 1010.2
20260506095531 61 360 3.0 11.0 0.00 0.00 0.00 76 1010.1
20260506095031 61 360 3.0 11.0 0.00 0.00 0.00 76 1009.9
20260506094542 61 360 3.0 8.0 0.00 0.00 0.00 76 1009.9
20260506094034 60 360 2.0 10.0 0.00 0.00 0.00 76 1010.0
20260506093531 60 360 3.0 10.0 0.00 0.00 0.00 76 1010.1
20260506093045 60 360 3.0 10.0 0.00 0.00 0.00 76 1010.1
20260506092535 60 0 1.0 9.0 0.00 0.00 0.00 76 1010.2
20260506092035 61 360 3.0 9.0 0.00 0.00 0.00 76 1010.1
20260506091545 60 360 2.0 9.0 0.00 0.00 0.00 76 1010.0
20260506091035 61 360 2.0 10.0 0.00 0.00 0.00 75 1010.0
20260506090534 61 360 2.0 10.0 0.00 0.00 0.00 75 1010.0
20260506090049 61 360 1.0 16.0 0.00 0.00 0.00 75 1009.9
20260506085530 61 360 3.0 16.0 0.00 0.00 0.00 74 1010.1
20260506085031 61 360 3.0 10.0 0.00 0.00 0.00 74 1010.2
20260506084559 61 360 2.0 12.0 0.00 0.00 0.00 74 1010.1
20260506084031 61 360 3.0 12.0 0.00 0.00 0.00 74 1010.1
20260506083532 61 360 4.0 12.0 0.00 0.00 0.00 73 1010.1
20260506083043 61 360 4.0 11.0 0.00 0.00 0.00 73 1010.0
20260506082532 61 360 4.0 13.0 0.00 0.00 0.00 73 1010.0
20260506082031 61 360 5.0 13.0 0.00 0.00 0.00 73 1010.0
20260506081542 61 360 3.0 11.0 0.00 0.00 0.00 73 1009.9
20260506081031 62 360 3.0 12.0 0.00 0.00 0.00 72 1009.9
20260506080531 62 360 4.0 14.0 0.00 0.00 0.00 72 1009.9
20260506073053 63 360 3.0 10.0 0.00 0.00 0.00 70 1009.7
20260506072532 63 360 4.0 12.0 0.00 0.00 0.00 70 1009.7
20260506072031 63 360 3.0 12.0 0.00 0.00 0.00 69 1009.6
20260506071544 63 360 3.0 10.0 0.00 0.00 0.00 69 1009.6
20260506071036 63 360 3.0 13.0 0.00 0.00 0.00 69 1009.5
20260506070531 63 360 5.0 14.0 0.00 0.00 0.00 68 1009.5
20260506062032 64 360 2.0 12.0 0.00 0.00 0.00 65 1009.5
20260506061556 64 360 5.0 12.0 0.00 0.00 0.00 65 1009.5